date,time,DOY,Ta_1_1_1,RH_1_1_1,LWin_1_1_1,LWout_1_1_1,SWin_1_1_1,SWout_1_1_1,PPFD_1_1_1,SWC_1_1_1,Ts_1_1_1
[yyyy-mm-dd],[HH:MM],[ddd.ddd],[K],[%],[W+1m-2],[W+1m-2],[W+1m-2],[W+1m-2],[µmol+1m-2s-1],[m+3m-3],[K]
2013-02-06,00:30,37.020,258.77766666666668,81.306666666666644,-9999.0,-9999.0,0.47300000000000003,-3.8423333333333334,6.66666666666666709E-003,-9999.0,279.90999999999991
2013-02-06,01:00,37.041,258.98399999999998,79.620666666666637,-9.4030769230769220,-9999.0,0.21166666666666675,-2.0093333333333332,6.66666666666666883E-003,-9999.0,279.90999999999991
2013-02-06,01:30,37.062,259.10333333333341,79.143666666666647,-9.6214285714285701,-9999.0,-0.29633333333333334,-1.3466666666666669,8.33333333333333322E-003,-9999.0,279.90999999999991
2013-02-06,02:00,37.083,259.49433333333332,77.483666666666664,-9.1100000000000012,-9999.0,-0.45466666666666666,-1.2776666666666665,9.66666666666666716E-003,-9999.0,279.90999999999991
2013-02-06,02:30,37.104,259.33900000000006,78.534000000000006,-8.9129999999999985,-9.9057142857142857,-0.67999999999999994,-1.3206666666666664,8.00000000000000190E-003,-9999.0,279.90999999999991
2013-02-06,03:00,37.124,259.25700000000001,79.188666666666663,-8.8289473684210531,-8.9322222222222223,-0.63599999999999990,-1.5839999999999999,7.66666666666666712E-003,-9999.0,279.90999999999991
2013-02-06,03:30,37.145,259.21400000000006,78.914333333333346,-8.6690000000000005,-8.8818181818181827,-0.68099999999999994,-1.4283333333333335,6.66666666666666709E-003,-9999.0,279.90999999999991
2013-02-06,04:00,37.166,258.87266666666670,79.982000000000014,-9.5922727272727268,-9999.0,-0.40866666666666662,-2.2806666666666668,6.66666666666666796E-003,-9999.0,279.90999999999991
2013-02-06,04:30,37.187,259.06666666666672,79.440999999999988,-9999.0,-9999.0,0.39300000000000007,-3.0816666666666666,3.33333333333333355E-003,-9999.0,279.90999999999991
2013-02-06,05:00,37.208,258.73266666666666,79.222666666666683,-8.8170000000000002,-9999.0,-0.33033333333333331,-2.0436666666666659,2.66666666666666658E-003,-9999.0,279.90999999999991
2013-02-06,05:30,37.229,258.13299999999998,80.663999999999987,-8.9961538461538471,-9999.0,-0.43099999999999999,-2.1583333333333332,4.33333333333333313E-003,-9999.0,279.90999999999991
2013-02-06,06:00,37.249,258.66300000000001,78.659333333333322,-9999.0,-9999.0,0.38733333333333336,-3.2773333333333334,7.33333333333333406E-003,-9999.0,279.90999999999991
2013-02-06,06:30,37.270,258.27599999999995,78.757000000000005,-9999.0,-9999.0,-3.63333333333333494E-002,-3.5240000000000000,8.33333333333333495E-003,-9999.0,279.90999999999991
2013-02-06,07:00,37.291,257.76633333333331,79.452666666666659,-9999.0,-9999.0,9.66666666666665675E-003,-3.1640000000000001,0.32433333333333336,-9999.0,279.90999999999991
2013-02-06,07:30,37.312,257.22433333333339,79.680999999999997,-9999.0,-9999.0,3.0136666666666669,9.5010000000000012,16.769333333333332,-9999.0,279.90999999999991
2013-02-06,08:00,37.333,256.78700000000003,79.770999999999987,-9999.0,-9999.0,10.954000000000001,56.757666666666665,88.452333333333328,-9999.0,279.90999999999991
2013-02-06,08:30,37.354,257.18666666666672,78.519000000000005,-9999.0,-9999.0,25.516000000000002,150.71899999999999,229.81533333333329,-9999.0,279.90999999999991
2013-02-06,09:00,37.374,259.41833333333335,75.139333333333326,-9999.0,-9999.0,38.097999999999992,223.40799999999999,356.86899999999991,-9999.0,279.90999999999991
2013-02-06,09:30,37.395,260.75666666666666,73.930333333333337,-7.1335999999999986,-9999.0,47.241333333333323,238.51333333333338,429.19033333333329,-9999.0,279.90999999999991
2013-02-06,10:00,37.416,261.57366666666678,74.414666666666633,-5.4059999999999979,-9999.0,42.049999999999983,187.31033333333338,378.45533333333339,-9999.0,279.90999999999991
2013-02-06,10:30,37.437,262.36200000000002,70.355000000000004,-5.1860000000000017,-9999.0,48.729333333333336,223.24666666666664,445.09433333333322,-9999.0,279.90999999999991
2013-02-06,11:00,37.458,263.30399999999992,66.393999999999991,-4.9406666666666670,-9999.0,57.195333333333338,258.93566666666663,518.94766666666658,-9999.0,279.90999999999991
2013-02-06,11:30,37.479,264.01966666666669,63.763000000000005,-4.2996666666666687,-9999.0,61.452666666666651,278.47133333333329,562.47033333333331,-9999.0,279.90999999999991
2013-02-06,12:00,37.499,264.64999999999998,60.637666666666668,-4.5269999999999992,-9999.0,68.105999999999980,307.92666666666668,625.11533333333341,-9999.0,279.90999999999991
2013-02-06,12:30,37.520,264.97033333333337,60.412666666666674,-4.7313333333333336,-9999.0,56.744000000000000,250.67800000000003,521.12833333333344,-9999.0,279.90999999999991
2013-02-06,13:00,37.541,265.17433333333344,62.141999999999989,-5.4076666666666666,-9999.0,45.704000000000015,200.43766666666667,426.56366666666673,-9999.0,279.90999999999991
2013-02-06,13:30,37.562,265.21299999999997,66.447333333333333,-5.2679999999999989,-9999.0,45.022666666666659,196.13266666666661,416.69799999999998,-9999.0,279.90999999999991
2013-02-06,14:00,37.583,265.20866666666666,70.923333333333332,-5.0976666666666670,-9999.0,33.655999999999999,146.06733333333338,313.60233333333332,-9999.0,279.90999999999991
2013-02-06,14:30,37.604,264.85233333333332,80.360333333333330,-5.3276666666666674,-9999.0,23.278000000000002,99.759000000000000,219.81266666666673,-9999.0,279.90999999999991
2013-02-06,15:00,37.624,264.76466666666664,84.548333333333360,-5.8159999999999998,-9999.0,15.700666666666667,66.925666666666672,150.42500000000004,-9999.0,279.90999999999991
2013-02-06,15:30,37.645,264.93200000000002,86.260999999999996,-6.1009999999999991,-9999.0,19.282000000000000,79.739999999999995,173.54533333333336,-9999.0,279.90999999999991
2013-02-06,16:00,37.666,265.03200000000004,86.631666666666661,-5.9643333333333333,-9.8666666666666671,13.416999999999994,56.207333333333310,120.74366666666667,-9999.0,279.90999999999991
2013-02-06,16:30,37.687,265.02200000000011,88.175666666666686,-6.1086666666666654,-8.9241666666666664,4.5543333333333322,20.238999999999997,45.821333333333335,-9999.0,279.90999999999991
2013-02-06,17:00,37.708,264.87466666666671,88.945666666666682,-5.4830000000000005,-8.2403333333333357,1.5073333333333330,7.1916666666666682,17.405999999999999,-9999.0,279.90999999999991
2013-02-06,17:30,37.729,264.74100000000004,90.499999999999986,-5.5069999999999997,-7.3543333333333321,-0.37633333333333335,0.18500000000000000,2.2889999999999997,-9999.0,279.90999999999991
2013-02-06,18:00,37.749,264.75333333333333,90.720000000000013,-4.9966666666666661,-6.5886666666666649,-0.43966666666666676,-0.50666666666666671,2.06666666666666700E-002,-9999.0,279.90999999999991
2013-02-06,18:30,37.770,264.84533333333337,90.131333333333345,-4.8076666666666661,-7.2136666666666676,-0.33000000000000002,-0.45633333333333342,3.33333333333333322E-004,-9999.0,279.90999999999991
2013-02-06,19:00,37.791,265.01766666666668,88.563333333333333,-5.7976666666666672,-8.5292307692307681,-0.44733333333333342,-0.62366666666666681,6.66666666666666644E-004,-9999.0,279.90999999999991
2013-02-06,19:30,37.812,265.03400000000005,88.724999999999980,-6.5460000000000003,-9.0491999999999990,-0.64833333333333343,-0.80699999999999994,1.33333333333333329E-003,-9999.0,279.90999999999991
2013-02-06,20:00,37.833,264.98999999999995,89.397333333333350,-6.2156666666666656,-6.8979999999999997,-0.68966666666666676,-0.68033333333333335,3.33333333333333322E-004,-9999.0,279.90999999999991
2013-02-06,20:30,37.854,265.00633333333337,89.682999999999964,-5.6663333333333314,-5.5649999999999995,-0.56600000000000006,-0.51500000000000012,0.0000000000000000,-9999.0,279.90999999999991
2013-02-06,21:00,37.874,265.04766666666671,89.455666666666687,-6.4233333333333329,-8.0096551724137921,-0.67166666666666675,-0.77533333333333343,-3.33333333333333214E-004,-9999.0,279.90999999999991
2013-02-06,21:30,37.895,265.03466666666674,90.312333333333328,-6.4353333333333333,-8.7494444444444444,-0.71633333333333316,-1.0313333333333332,3.33333333333333322E-004,-9999.0,279.90999999999991
2013-02-06,22:00,37.916,264.95099999999991,92.676333333333361,-5.2496666666666671,-5.4449999999999985,-0.87066666666666670,-0.21333333333333335,3.33333333333333322E-004,-9999.0,279.90999999999991
2013-02-06,22:30,37.937,265.04500000000007,92.873666666666622,-4.3449999999999998,-2.1699999999999999,-1.0309999999999999,0.32533333333333342,1.00000000000000002E-003,-9999.0,279.90999999999991
2013-02-06,23:00,37.958,265.12900000000008,92.557333333333318,-4.6863333333333337,-1.2056666666666667,-0.93433333333333335,0.16800000000000004,3.33333333333333322E-004,-9999.0,279.90999999999991
2013-02-06,23:30,37.979,265.11600000000004,92.208000000000041,-5.0360000000000005,-1.1506666666666665,-0.71899999999999997,-0.26066666666666660,1.00000000000000002E-003,-9999.0,279.90999999999991
2013-02-07,00:00,38.000,265.08299999999997,91.979999999999990,-5.1813333333333329,-1.0643333333333336,-0.54266666666666674,-0.43900000000000006,1.00000000000000002E-003,-9999.0,279.90999999999991
